Location: Unspecified
(0.0000°N, 0.0000°E)
Time: 13:34:52
(UTC+00:00)

S-56A Canister/Altair - Pass Details

Date: 24 April 2019
Orbit: 633 x 2499 km, 38.9° (Epoch: 23 August)

Event Time Altitude Azimuth Distance (km) Brightness Sun altitude
Exits shadow 03:32:37 - 176° (S) 4,029 11.1 -35.4°
Reaches altitude 10° 03:35:47 10° 158° (SSE) 3,860 11.1 -34.6°
Maximum altitude 03:39:06 12° 139° (SE) 3,966 11.4 -33.8°
Drops below altitude 10° 03:42:46 10° 120° (ESE) 4,369 11.8 -32.9°
Sets 03:50:39 0° 93° (E) 5,815 13.0 -31.0°
